Wetbulb
70.24 71.39 71.54 71.89 72.18 71.80 71.55 71.28 71.29 71.36 71.28 70.65 70.55 70.33 69.99 69.60 69.68 69.43 69.34 68.84 68.16 66.59 66.22 65.66 65.23 65.07 65.08 65.36 65.82 66.33 66.80 67.04 67.40 67.87 68.19 68.41 68.82 69.15 69.59 69.24 69.41 69.64 69.04
70.98 71.16 70.63 71.53 71.82 71.56 71.49 71.48 71.29 71.21 70.76 70.06 69.89 69.47 69.30 68.94 68.53 68.16 68.38 67.90 66.88 65.65 65.15 64.62 64.51 64.45 64.64 64.65 64.91 65.39 65.94 66.15 66.91 67.32 67.84 68.41 69.38 69.33 68.90 68.87 69.13 69.11 68.41
70.96 70.87 70.81 70.76 71.60 71.56 71.44 70.93 70.91 70.25 69.77 69.62 69.09 69.04 68.34 67.43 66.96 66.69 67.53 67.39 66.46 64.81 64.33 64.72 65.06 65.06 65.05 64.53 64.77 65.20 65.51 65.16 65.31 66.40 68.36 68.88 69.22 69.19 68.99 68.31 68.29 68.04 67.55
70.96 70.93 71.18 70.55 71.23 71.67 71.53 71.44 71.01 70.02 69.60 68.85 68.82 68.17 67.14 66.65 66.28 65.89 66.06 66.71 66.73 65.14 64.70 65.25 64.97 64.51 64.67 64.67 64.32 64.29 65.25 64.68 64.04 66.04 68.67 68.89 68.35 68.29 68.65 67.60 67.03 66.88 67.90
70.73 71.42 71.59 70.37 70.96 71.27 71.09 70.95 70.67 70.28 69.71 69.29 69.06 67.11 66.15 65.84 65.42 65.31 66.35 67.15 66.97 65.47 65.60 65.51 64.86 64.06 63.58 63.97 64.11 63.52 63.38 64.78 65.20 67.11 68.23 68.20 68.22 68.12 68.16 67.59 67.96 67.91 67.48
70.60 71.49 70.08 69.90 70.26 70.88 70.86 70.81 70.37 69.79 69.20 69.15 68.59 67.19 65.60 65.26 65.07 65.12 66.56 67.00 66.09 65.74 65.65 65.37 65.13 64.67 64.84 64.44 63.74 62.96 62.46 62.94 64.58 65.61 67.11 67.58 68.19 67.90 67.82 67.19 68.24 68.12 67.76
69.98 71.45 71.37 67.89 69.08 70.94 70.91 70.25 69.74 69.34 69.04 69.03 68.41 67.54 66.42 65.03 65.07 65.13 66.00 66.15 65.75 65.22 65.15 65.17 65.15 65.02 64.78 64.52 62.85 61.76 61.78 61.94 61.50 62.92 64.58 66.56 67.01 67.10 67.10 66.81 66.59 67.02 66.99
70.44 70.60 70.74 69.30 69.26 70.18 70.35 69.87 68.69 68.57 68.84 68.67 68.19 67.37 66.19 65.75 65.86 65.08 65.13 65.15 65.24 65.18 65.25 64.93 64.69 64.61 64.21 63.91 63.01 61.12 60.66 61.00 60.95 60.04 60.53 62.93 64.94 65.75 65.96 66.08 67.07 66.92 66.22
70.24 70.21 70.86 70.82 70.29 68.87 68.47 67.81 67.47 67.80 68.10 68.05 67.81 67.04 66.38 65.94 65.97 65.54 65.38 65.38 65.28 65.39 65.01 64.53 63.15 62.88 62.63 62.33 62.00 60.91 59.76 60.23 62.38 61.34 60.35 60.80 62.96 64.08 64.46 64.32 65.66 65.90 65.25
69.24 69.78 70.23 69.91 69.95 69.83 68.90 66.81 66.67 66.69 66.82 66.99 66.65 65.64 64.98 65.27 65.36 64.51 65.32 64.90 64.11 64.83 64.05 62.72 61.90 61.43 61.82 61.86 61.04 60.78 60.29 61.53 62.01 61.91 61.48 61.84 61.75 62.86 63.57 64.02 63.96 64.72 64.94
67.70 68.35 69.55 68.96 68.80 68.55 67.36 66.89 66.01 66.28 66.32 66.10 65.93 65.11 64.41 66.72 66.47 65.72 63.79 63.09 63.15 62.94 62.10 61.44 60.70 60.80 61.19 61.04 60.39 60.24 61.41 60.86 61.33 61.17 61.56 59.97 61.02 62.86 63.37 63.39 63.47 64.89 65.44
66.08 68.09 68.91 68.57 67.95 66.74 65.04 66.39 66.54 66.08 67.21 67.49 67.43 67.50 68.46 68.33 67.90 65.80 62.88 61.86 60.96 60.85 60.57 60.24 60.03 60.82 60.82 60.26 59.86 60.47 59.48 59.87 59.96 60.05 60.90 58.34 59.53 61.12 62.19 62.72 63.01 63.17 64.53
67.53 66.58 66.92 67.17 66.48 65.13 65.21 65.82 65.95 67.47 68.04 68.35 68.54 68.79 68.99 68.72 69.12 67.88 64.97 64.74 64.44 61.66 62.57 61.42 60.50 59.62 59.76 58.76 57.99 57.96 57.94 58.13 57.98 57.72 59.42 56.98 57.87 59.54 60.91 61.67 62.08 62.39 62.49
64.60 64.01 64.32 65.11 65.65 65.77 65.45 65.90 66.73 67.76 68.28 68.62 69.29 68.80 69.00 67.83 67.62 66.03 64.86 64.01 63.92 62.40 61.29 60.40 59.95 59.36 58.55 57.77 57.24 57.04 57.12 57.00 56.87 56.51 58.19 55.91 56.65 57.97 59.59 60.12 59.90 60.07 60.03
62.12 63.06 63.59 64.50 64.72 65.35 66.09 66.52 67.23 68.18 67.95 67.80 68.02 67.25 68.12 67.00 65.45 64.31 63.08 62.64 62.39 62.38 60.80 60.11 59.09 57.97 57.46 57.04 56.84 56.53 56.13 56.40 56.60 56.43 56.54 55.12 54.52 55.35 56.59 57.15 57.44 57.15 57.03
62.65 63.46 64.20 64.18 64.98 65.46 66.14 66.93 66.70 66.61 67.14 67.06 64.36 63.62 63.51 64.74 64.46 62.20 61.09 60.87 61.54 60.50 59.35 58.14 57.27 56.69 56.45 56.40 56.25 56.16 56.07 56.08 56.06 55.80 55.64 57.01 52.43 51.68 53.06 54.10 54.76 54.83 54.71
63.17 64.28 64.43 64.88 65.43 65.74 66.24 65.64 64.16 63.25 63.52 62.87 62.15 61.06 61.99 61.86 60.64 60.78 61.21 59.98 57.21 56.80 56.38 55.75 55.83 56.47 56.31 56.13 55.61 55.44 55.19 55.30 54.38 54.45 54.61 55.02 55.80 51.22 50.39 51.03 51.78 52.08 52.31
64.10 64.31 64.88 64.86 65.35 64.53 62.59 61.69 60.98 60.27 60.79 60.57 59.91 59.32 58.96 58.75 58.65 57.84 57.16 55.32 55.62 56.23 56.24 55.77 55.46 54.78 54.19 53.77 52.95 52.16 52.58 52.57 52.39 53.83 53.80 54.13 53.68 53.13 53.25 50.85 50.01 50.42 50.01
64.52 64.83 64.30 65.28 63.86 60.36 59.22 58.66 60.22 58.68 58.27 57.98 56.93 56.59 57.01 54.91 55.22 55.75 56.25 55.72 56.19 55.80 55.54 54.29 53.15 52.03 50.75 51.04 50.33 49.74 50.83 50.44 50.43 51.65 52.03 52.51 52.20 51.85 51.65 51.89 50.70 50.00 48.59
65.20 65.15 64.97 64.64 62.38 60.96 57.26 57.58 57.78 58.20 57.26 57.46 57.08 56.26 55.65 56.00 56.18 56.37 55.76 55.71 55.43 54.50 52.70 51.65 50.88 51.09 50.08 49.57 48.36 48.02 49.66 49.93 50.79 51.93 51.28 50.26 50.99 50.84 50.76 49.93 49.94 49.70 49.21
64.61 64.45 64.79 63.56 61.08 60.90 59.09 56.05 56.46 55.31 55.17 54.96 56.32 56.42 56.09 55.63 55.25 55.94 56.29 54.98 53.94 52.09 51.18 51.14 50.15 49.32 48.65 49.74 47.96 47.28 48.06 49.63 51.23 51.17 50.39 49.52 49.33 48.75 49.24 48.89 48.61 48.40 48.36
63.57 63.84 64.42 63.34 63.93 63.51 62.51 60.72 60.03 58.89 58.92 58.08 56.54 55.57 55.35 55.18 55.14 54.83 54.01 53.65 52.30 51.51 51.28 50.30 49.25 47.31 47.33 48.29 45.49 44.97 42.19 45.17 47.55 49.61 47.82 47.91 47.85 48.10 47.16 47.38 47.17 47.53 47.84
62.83 63.26 63.32 64.30 63.58 62.51 61.35 60.22 59.86 58.73 56.95 55.48 55.18 55.07 54.97 54.65 54.51 54.35 53.58 52.81 52.43 51.11 49.31 49.53 48.80 47.00 44.70 46.48 47.02 44.00 40.46 38.97 41.96 44.93 45.34 45.71 45.94 45.13 45.54 45.80 45.94 45.88 47.15
63.37 64.28 64.17 62.58 60.77 60.13 60.23 59.56 58.12 58.53 57.04 57.66 57.66 56.21 54.95 53.98 53.65 53.03 52.14 52.15 51.64 51.07 50.03 48.85 47.78 47.23 46.11 43.53 44.98 45.18 44.70 42.74 37.92 36.76 41.83 42.47 43.78 43.22 43.61 43.50 44.34 44.22 45.42
59.87 61.32 62.74 60.97 59.30 58.93 58.37 58.04 58.16 56.52 55.99 55.38 55.10 53.29 54.59 54.51 53.17 52.40 52.06 51.83 51.31 50.82 49.98 48.84 47.64 47.41 46.17 44.11 43.25 42.63 42.06 41.49 41.21 37.72 34.77 37.93 40.89 41.80 42.31 42.35 42.05 42.77 43.69
58.10 58.83 59.48 58.18 57.43 57.58 57.59 57.29 56.65 55.54 53.98 54.04 53.48 52.12 51.50 51.68 52.06 52.22 52.24 51.90 51.44 50.50 49.35 48.26 47.85 46.93 45.31 44.24 43.09 41.23 39.80 38.55 37.98 37.37 35.55 35.92 36.05 38.73 40.48 41.14 41.17 41.65 41.97
MSLP
1016.39 1017.24 1018.34 1018.73 1019.07 1019.29 1019.55 1019.58 1019.84 1020.13 1020.29 1020.33 1020.46 1020.50 1020.47 1020.52 1020.66 1020.84 1020.85 1020.86 1020.87 1020.84 1020.93 1020.98 1020.94 1020.79 1020.71 1020.57 1020.54 1020.46 1020.28 1020.08 1019.69 1019.45 1019.15 1019.13 1019.27 1019.13 1019.28 1019.17 1018.82 1018.05 1018.77
1016.56 1017.44 1018.63 1018.96 1019.34 1019.52 1019.71 1019.97 1020.21 1020.44 1020.58 1020.67 1020.87 1020.85 1020.88 1021.00 1021.19 1021.23 1021.14 1021.19 1021.13 1021.11 1021.18 1021.26 1021.12 1021.15 1021.04 1020.97 1020.78 1020.68 1020.44 1020.24 1019.90 1019.47 1018.94 1018.92 1019.31 1019.41 1019.64 1019.63 1019.18 1019.05 1019.27
1016.70 1017.51 1018.48 1019.18 1019.62 1019.90 1020.04 1020.24 1020.50 1020.85 1021.06 1021.05 1021.15 1021.25 1021.16 1021.35 1021.51 1021.50 1021.65 1021.57 1021.48 1021.49 1021.61 1021.48 1021.43 1021.28 1021.23 1021.12 1020.97 1020.82 1020.65 1020.31 1020.05 1019.58 1018.91 1017.77 1018.69 1019.79 1019.83 1019.80 1019.67 1019.48 1019.31
1016.76 1017.17 1018.21 1019.31 1019.83 1020.06 1020.23 1020.54 1020.79 1021.02 1021.26 1021.35 1021.41 1021.39 1021.59 1021.76 1021.81 1021.93 1021.92 1021.95 1021.78 1021.77 1021.65 1021.63 1021.83 1021.74 1021.59 1021.43 1021.21 1020.96 1020.64 1020.40 1020.07 1019.31 1018.29 1018.47 1018.51 1019.93 1019.87 1019.88 1019.71 1019.60 1019.38
1017.01 1017.05 1018.40 1019.42 1019.96 1020.32 1020.40 1020.68 1020.93 1021.24 1021.46 1021.57 1021.70 1021.88 1021.99 1022.05 1022.10 1022.27 1022.29 1022.33 1022.24 1022.23 1022.15 1022.04 1022.11 1021.90 1021.99 1021.74 1021.64 1021.43 1020.92 1020.52 1019.90 1018.98 1018.78 1019.47 1019.09 1019.96 1020.04 1020.00 1019.76 1019.65 1019.73
1017.05 1017.46 1019.18 1019.71 1019.97 1020.51 1020.59 1020.91 1021.32 1021.54 1021.85 1021.86 1022.00 1022.13 1022.10 1022.21 1022.37 1022.49 1022.57 1022.61 1022.48 1022.34 1022.35 1022.32 1022.24 1022.33 1022.25 1022.00 1021.82 1021.47 1021.20 1020.91 1019.53 1019.00 1019.29 1019.69 1019.73 1020.27 1020.09 1020.08 1020.11 1019.97 1019.95
1017.36 1017.73 1019.15 1019.88 1020.18 1020.74 1021.00 1021.43 1021.61 1021.84 1022.13 1022.25 1022.36 1022.52 1022.64 1022.74 1022.87 1023.05 1023.00 1023.13 1023.04 1022.85 1022.76 1022.65 1022.49 1022.56 1022.61 1022.20 1022.03 1021.79 1021.57 1021.28 1019.96 1019.34 1019.51 1019.70 1020.44 1020.52 1020.33 1020.28 1020.23 1020.14 1020.07
1017.18 1018.07 1019.11 1020.17 1020.72 1021.17 1021.48 1021.80 1021.92 1022.32 1022.50 1022.59 1022.70 1022.83 1022.87 1022.95 1023.18 1023.16 1023.34 1023.27 1023.22 1023.10 1023.04 1022.98 1022.86 1022.84 1022.56 1022.40 1022.37 1022.05 1021.83 1021.61 1020.35 1019.99 1019.73 1019.62 1020.97 1020.78 1020.60 1020.50 1020.36 1020.25 1020.17
1017.70 1018.44 1019.30 1019.89 1020.86 1021.67 1021.98 1022.10 1022.36 1022.58 1022.80 1022.93 1022.85 1023.03 1023.15 1023.23 1023.28 1023.44 1023.41 1023.58 1023.44 1023.17 1023.15 1023.08 1022.94 1022.94 1022.81 1022.52 1022.48 1022.31 1021.90 1021.67 1020.66 1020.33 1019.99 1020.08 1021.31 1020.94 1020.78 1020.66 1020.54 1020.37 1020.26
1018.63 1019.12 1019.42 1019.70 1020.35 1021.06 1021.66 1022.29 1022.47 1022.63 1022.90 1023.20 1023.34 1023.54 1023.53 1023.72 1023.64 1023.55 1023.50 1023.83 1023.69 1023.38 1023.33 1023.17 1023.17 1022.95 1022.75 1022.39 1022.61 1022.43 1021.99 1021.46 1020.72 1020.38 1020.05 1021.12 1021.48 1021.19 1020.86 1020.77 1020.61 1020.50 1020.39
1019.41 1019.80 1019.70 1019.81 1020.42 1020.96 1021.30 1022.31 1022.69 1022.93 1023.20 1023.51 1023.73 1023.70 1023.60 1022.97 1023.07 1023.09 1023.86 1023.77 1023.79 1023.81 1023.62 1023.46 1023.42 1023.12 1022.63 1022.31 1022.44 1022.36 1021.85 1021.27 1020.97 1020.55 1020.30 1021.83 1021.70 1021.29 1020.95 1020.75 1020.58 1020.47 1020.30
1019.61 1019.99 1019.86 1020.27 1021.00 1021.42 1021.43 1022.02 1022.19 1022.58 1022.63 1022.77 1022.90 1023.25 1022.98 1023.34 1023.18 1023.31 1023.82 1024.00 1023.76 1023.95 1023.88 1023.65 1023.47 1023.20 1022.56 1022.08 1022.01 1022.04 1021.79 1021.78 1021.08 1020.99 1020.80 1022.03 1021.84 1021.40 1021.09 1020.80 1020.56 1020.36 1020.21
1019.31 1019.74 1020.37 1020.81 1021.18 1021.28 1021.67 1021.81 1021.94 1022.34 1022.65 1022.91 1023.36 1023.33 1023.38 1023.39 1023.36 1023.12 1023.28 1023.42 1023.19 1023.66 1023.03 1023.15 1023.04 1023.02 1023.19 1022.78 1022.67 1022.58 1022.31 1021.72 1021.28 1021.11 1021.21 1022.08 1021.99 1021.51 1021.14 1020.93 1020.79 1020.58 1020.40
1018.95 1019.76 1020.31 1020.90 1021.41 1021.54 1021.58 1021.60 1022.13 1022.36 1022.68 1022.92 1023.23 1023.48 1023.31 1023.09 1023.44 1023.45 1023.27 1023.48 1023.51 1023.50 1023.47 1023.40 1023.31 1023.49 1023.24 1023.04 1023.02 1022.84 1022.57 1022.21 1021.63 1021.36 1021.17 1021.90 1022.07 1021.67 1021.32 1021.12 1021.00 1020.88 1020.72
1018.82 1019.67 1020.39 1020.96 1021.33 1021.86 1021.72 1022.20 1022.42 1022.68 1023.04 1023.56 1023.65 1023.71 1023.50 1023.28 1023.45 1023.51 1023.84 1023.63 1023.68 1023.60 1023.54 1023.50 1023.48 1023.34 1023.18 1023.05 1022.98 1022.88 1022.56 1022.24 1022.01 1021.49 1021.20 1021.74 1022.08 1021.93 1021.61 1021.41 1021.25 1021.10 1020.97
1018.86 1019.88 1020.57 1021.20 1021.51 1021.80 1021.85 1022.31 1022.81 1023.08 1023.51 1023.76 1024.53 1024.46 1024.24 1023.96 1023.88 1023.95 1023.84 1023.69 1023.72 1023.74 1023.89 1023.88 1024.08 1023.70 1023.35 1023.24 1022.83 1022.83 1022.71 1022.31 1022.03 1021.85 1021.30 1020.95 1021.74 1022.03 1021.87 1021.65 1021.50 1021.35 1021.13
1018.92 1020.07 1020.82 1021.33 1021.62 1021.98 1022.28 1022.75 1023.19 1023.35 1023.63 1024.15 1024.36 1024.76 1024.49 1024.27 1024.26 1024.20 1024.06 1024.11 1024.68 1024.69 1024.71 1024.51 1024.23 1023.77 1023.40 1023.11 1022.74 1022.43 1022.17 1021.82 1021.83 1021.90 1021.56 1021.11 1021.03 1021.64 1021.68 1021.79 1021.70 1021.50 1021.29
1018.62 1019.93 1021.03 1021.60 1021.89 1022.67 1023.33 1023.81 1024.40 1024.15 1023.87 1024.41 1024.48 1024.75 1024.68 1024.45 1024.57 1024.78 1024.82 1025.27 1025.20 1024.85 1024.67 1024.39 1024.29 1024.05 1023.62 1023.34 1022.94 1022.55 1022.11 1021.81 1021.57 1021.76 1021.54 1021.68 1021.33 1021.08 1020.96 1021.29 1021.64 1021.54 1021.21
1018.78 1020.03 1020.91 1021.37 1022.11 1023.30 1024.30 1023.71 1024.03 1024.25 1024.08 1024.70 1024.69 1024.62 1024.91 1025.21 1025.33 1025.11 1024.85 1025.17 1025.07 1024.87 1025.01 1024.86 1024.64 1024.34 1024.04 1023.61 1023.30 1022.70 1022.12 1021.88 1021.35 1021.20 1021.57 1021.63 1021.53 1021.55 1021.29 1020.88 1021.20 1021.19 1021.07
1019.06 1020.00 1020.64 1021.29 1022.16 1022.77 1023.02 1024.24 1024.08 1024.34 1024.31 1024.48 1024.59 1024.85 1025.09 1025.09 1025.13 1024.84 1025.07 1025.29 1025.12 1024.95 1025.01 1025.31 1025.18 1024.72 1024.40 1023.85 1023.56 1022.72 1022.34 1021.98 1021.42 1021.34 1021.49 1021.38 1021.23 1021.55 1021.38 1021.34 1021.00 1020.37 1020.64
1019.40 1020.06 1020.58 1021.37 1022.28 1022.54 1023.02 1023.79 1023.83 1023.99 1024.18 1024.97 1024.60 1024.65 1024.91 1025.10 1025.06 1025.00 1024.95 1025.10 1025.09 1025.23 1025.49 1025.54 1025.26 1024.79 1024.36 1024.15 1023.87 1022.53 1021.96 1021.39 1021.67 1021.42 1021.52 1021.50 1021.32 1021.43 1021.46 1021.14 1021.06 1020.72 1020.28
1019.41 1019.93 1020.40 1021.21 1021.56 1021.84 1022.10 1022.35 1022.50 1022.89 1023.43 1023.77 1024.58 1024.98 1025.09 1025.11 1025.08 1025.10 1025.14 1025.12 1025.25 1025.13 1025.46 1025.45 1025.31 1024.94 1024.43 1024.22 1024.15 1023.47 1021.68 1021.22 1020.77 1021.34 1021.87 1021.60 1021.42 1021.60 1021.41 1021.32 1021.07 1020.72 1020.33
1019.38 1019.77 1020.11 1020.45 1020.98 1021.36 1021.60 1022.19 1022.78 1023.42 1023.89 1024.04 1024.36 1024.62 1024.96 1025.19 1025.25 1025.40 1025.45 1025.24 1025.33 1025.31 1025.13 1025.28 1025.19 1025.07 1024.69 1024.41 1024.21 1024.13 1022.91 1022.05 1022.07 1022.13 1021.76 1021.64 1021.77 1021.66 1021.54 1021.26 1021.09 1020.91 1020.24
1018.96 1019.36 1019.67 1020.36 1020.94 1021.67 1022.11 1022.19 1022.43 1022.30 1022.60 1023.42 1024.07 1024.47 1024.81 1025.36 1025.38 1025.25 1025.29 1025.32 1025.34 1025.20 1025.12 1024.99 1024.98 1025.18 1024.88 1024.44 1024.13 1023.93 1024.08 1023.85 1023.08 1022.20 1022.46 1022.12 1021.94 1021.59 1021.39 1021.38 1021.00 1020.95 1020.29
1019.40 1019.70 1020.04 1020.68 1021.18 1021.77 1022.11 1022.33 1022.66 1022.96 1023.47 1023.97 1024.33 1024.59 1024.75 1024.88 1025.07 1024.98 1025.02 1025.10 1025.14 1025.01 1024.87 1025.16 1025.16 1025.06 1024.96 1024.69 1024.33 1024.15 1024.14 1023.95 1023.56 1022.99 1022.15 1021.96 1021.62 1021.51 1021.32 1021.26 1021.31 1020.70 1020.25
1019.67 1020.26 1020.62 1020.79 1021.46 1022.00 1022.41 1022.90 1023.18 1023.38 1023.55 1023.60 1023.97 1024.07 1024.10 1024.25 1024.33 1024.56 1024.91 1024.99 1024.92 1024.82 1024.93 1024.97 1024.99 1024.88 1024.89 1024.93 1024.79 1024.72 1024.40 1024.00 1023.62 1023.28 1022.81 1022.39 1021.84 1021.38 1021.47 1021.35 1020.97 1020.51 1020.25
Wind_Speed
15 18 13 13 12 12 13 14 13 13 12 14 14 14 15 14 14 13 13 13 13 15 15 14 13 13 13 13 13 12 12 11 11 11 10 8 10 12 11 9 12 9 7
17 19 12 14 12 13 14 13 13 12 12 14 14 14 14 14 13 13 13 13 13 14 14 13 14 14 14 14 14 13 13 12 11 9 8 5 15 14 13 13 13 10 5
17 18 18 14 13 13 14 14 13 13 13 14 14 14 15 14 14 14 12 12 12 13 13 14 14 13 13 13 13 14 13 13 11 8 7 7 14 14 13 14 12 11 3
17 18 17 15 13 13 14 12 12 13 13 13 13 14 14 14 14 13 11 10 11 12 14 15 14 14 14 13 14 14 14 12 9 11 7 10 9 16 14 15 11 10 12
15 16 16 15 13 13 12 12 11 11 11 12 12 13 14 13 13 12 10 10 12 14 14 15 15 15 13 13 12 13 14 12 10 5 10 11 9 13 13 14 13 12 12
14 15 15 12 13 13 12 11 11 10 9 10 11 12 13 13 12 11 10 10 12 13 13 13 13 13 12 12 12 13 13 13 15 11 10 8 12 12 13 13 11 11 10
14 15 16 9 12 12 12 11 11 10 9 9 10 10 11 12 12 11 10 11 12 12 12 12 12 11 11 11 13 13 14 14 11 10 8 9 11 12 13 13 12 12 12
15 14 14 11 11 10 10 10 10 9 8 8 9 9 11 11 10 11 10 10 10 10 10 10 10 10 11 11 12 11 11 14 10 11 8 8 13 12 11 11 10 10 10
12 12 12 13 11 8 8 9 9 8 8 7 8 9 9 9 10 10 9 9 8 9 9 9 10 10 10 10 10 9 7 7 9 7 8 9 14 13 12 11 11 10 10
10 10 12 12 12 11 11 9 8 8 8 7 7 8 9 8 8 6 8 9 8 8 9 11 10 10 8 9 9 9 8 11 10 8 6 10 15 14 13 12 12 11 10
8 9 8 10 9 7 9 9 8 7 7 7 7 6 7 4 5 6 9 8 10 10 10 10 10 9 7 6 8 8 11 8 9 7 6 14 14 14 14 13 12 12 10
9 10 10 9 8 7 6 8 6 7 6 5 4 5 2 2 3 5 7 9 9 7 8 9 7 2 7 8 7 5 7 8 6 7 5 12 13 13 13 13 12 12 12
12 8 9 8 8 7 6 5 4 4 4 4 3 2 2 2 2 2 3 3 3 1 2 3 4 6 8 7 8 7 9 9 6 6 6 12 13 13 12 12 12 13 13
12 11 10 9 8 6 5 5 5 3 3 1 2 1 2 3 2 1 2 3 1 3 3 4 4 5 7 7 8 9 9 9 7 6 4 12 12 11 12 12 12 13 13
12 10 10 10 9 7 6 5 4 3 4 4 3 4 1 2 3 3 2 2 2 2 3 3 4 5 7 8 8 9 10 10 9 7 6 11 9 10 11 11 13 13 14
10 10 10 9 8 7 7 6 5 4 3 3 2 3 2 3 3 3 4 3 2 3 4 5 7 7 7 8 10 10 10 10 10 9 7 2 10 7 10 12 13 14 15
10 12 11 9 8 7 7 8 6 5 4 3 3 1 5 4 4 4 1 3 5 5 6 4 5 6 8 9 11 11 10 9 8 9 8 7 2 10 6 9 13 15 15
12 13 12 10 12 11 9 7 4 1 4 2 3 3 4 4 3 4 4 4 4 4 4 6 6 8 9 9 9 10 10 10 8 7 6 6 6 8 2 11 12 15 14
13 15 15 14 14 8 5 5 3 1 3 3 3 4 5 6 5 4 4 5 4 4 5 6 7 7 9 9 10 10 10 10 10 6 6 6 6 7 8 9 10 14 13
14 16 17 14 12 8 7 3 2 3 4 4 4 4 5 5 5 4 5 4 4 4 5 7 8 8 9 8 10 10 9 10 9 5 6 7 7 8 9 12 11 10 13
13 15 16 16 10 7 5 6 6 6 6 5 5 6 5 5 5 4 3 3 4 5 5 6 7 9 8 8 10 10 10 8 6 6 8 9 9 11 11 11 9 10 10
13 14 14 14 11 8 7 6 5 6 4 4 4 5 5 5 4 4 4 3 4 4 4 6 7 7 9 8 8 11 10 9 11 2 10 9 12 10 12 13 14 14 12
13 13 13 11 11 8 8 6 5 5 6 5 5 5 4 4 3 3 2 3 3 4 5 5 6 8 8 9 6 8 10 10 11 11 10 9 12 11 11 13 14 15 13
12 10 10 11 11 9 7 5 4 1 2 2 1 3 4 3 2 3 4 4 5 5 5 5 5 6 9 9 7 6 7 10 11 12 9 11 11 13 14 11 11 15 14
11 10 10 10 9 8 6 3 4 4 5 5 4 3 2 3 4 6 6 6 6 6 6 6 6 10 8 7 8 7 7 8 10 10 12 12 11 11 9 10 12 13 13
9 9 10 11 9 8 7 7 7 7 5 2 1 3 4 5 6 7 7 7 8 8 7 6 7 10 7 7 7 7 8 8 9 9 11 12 14 12 10 11 11 12 12
Wind_Direction
148 139 142 130 125 119 113 105 106 109 111 109 105 101 96 95 95 91 85 80 76 73 69 64 61 56 48 42 38 32 28 27 26 15 356 10 38 38 33 25 337 62 54
140 145 136 131 130 127 120 114 114 117 118 112 107 106 105 101 93 88 82 79 78 74 70 66 59 52 46 39 34 29 27 25 26 20 339 228 67 43 43 29 19 56 55
142 141 148 134 138 134 126 123 124 125 119 113 115 111 105 101 97 86 78 77 78 76 72 68 64 57 51 44 35 27 24 22 16 350 295 28 72 29 31 31 23 15 11
144 146 149 140 142 135 129 128 128 125 123 120 116 109 106 105 98 92 81 78 79 80 80 74 62 49 44 38 31 26 24 18 358 315 44 18 54 40 31 24 23 16 360
153 142 135 136 136 138 128 124 123 125 122 116 110 110 108 106 102 96 88 86 83 83 80 70 63 56 47 38 30 26 24 1 321 347 43 31 26 39 31 34 33 36 13
145 141 127 135 140 133 125 126 126 115 112 115 117 118 114 110 107 102 90 87 90 86 79 72 63 53 43 38 31 27 19 347 320 44 36 58 38 29 35 33 25 24 19
150 134 146 135 129 127 132 133 123 119 121 118 111 107 108 105 101 95 83 76 77 76 72 64 60 52 41 41 36 25 13 344 359 31 38 43 31 13 23 29 33 31 28
137 138 136 129 120 123 128 124 114 116 111 108 106 107 112 106 99 89 79 78 75 72 65 56 52 50 47 42 36 29 18 349 21 29 19 53 22 7 14 18 24 24 23
133 135 140 142 128 117 124 115 115 110 110 115 113 112 108 99 87 84 80 70 66 67 65 62 55 55 58 51 35 20 13 338 353 15 5 39 12 5 8 10 10 10 9
129 134 155 144 158 159 145 118 123 126 127 118 115 111 103 104 110 113 140 60 57 68 66 60 48 39 39 53 35 11 321 261 1 345 357 29 357 353 357 356 1 357 355
132 141 155 154 144 137 134 123 137 127 118 122 131 113 177 135 135 135 67 66 66 71 68 58 44 30 345 104 58 359 298 4 337 351 351 18 359 353 348 345 346 346 342
149 155 158 144 133 138 138 149 141 137 153 146 155 166 158 126 65 62 80 86 85 94 92 82 54 21 356 5 6 341 359 347 339 330 33 22 358 354 355 354 350 343 345
163 141 149 141 133 148 127 145 149 153 150 143 147 229 108 211 176 146 138 145 118 93 39 75 42 30 16 5 4 353 344 332 344 330 39 29 359 355 358 6 5 3 2
156 143 141 130 131 118 140 145 133 140 114 124 86 207 232 220 151 167 128 118 93 39 44 21 33 10 6 5 353 343 339 330 335 318 25 51 7 8 13 19 20 21 18
151 136 137 132 137 137 130 117 98 76 57 2 351 22 310 192 149 148 103 83 52 50 28 356 357 2 353 350 342 335 328 320 318 315 312 88 49 19 23 24 22 19 17
141 139 132 137 134 133 109 121 96 72 58 68 48 337 334 283 153 147 165 148 93 27 22 2 3 346 340 337 332 332 317 312 315 315 314 293 108 61 30 23 17 11 5
153 138 138 127 130 128 110 76 52 51 55 93 137 220 190 157 164 180 116 43 38 46 3 21 334 329 326 326 322 320 310 308 309 309 303 319 166 145 103 29 6 357 355
147 148 132 129 114 90 70 49 37 9 109 137 143 182 166 130 85 66 79 69 54 31 360 358 342 333 330 326 325 318 313 316 312 292 294 319 338 327 191 53 352 341 343
156 146 147 139 120 109 44 97 267 66 99 148 166 130 93 78 96 113 77 56 20 14 5 348 342 341 328 323 319 311 306 304 297 286 297 301 303 317 326 345 329 313 347
155 156 152 145 141 133 122 161 169 167 145 155 113 92 132 120 100 91 85 55 355 3 5 359 342 336 319 324 317 306 303 293 291 282 297 302 312 318 307 322 323 318 333
154 160 166 154 152 151 138 174 169 170 136 151 163 131 128 110 109 85 52 26 10 19 5 348 336 332 322 330 311 314 298 276 263 284 309 315 318 322 320 320 312 323 316
163 166 166 169 180 184 178 166 165 148 161 125 133 129 131 125 96 60 19 11 10 342 335 343 343 330 322 333 316 310 309 302 281 321 315 310 312 328 317 327 319 316 314
169 167 175 176 178 162 148 142 137 134 151 166 155 158 111 100 90 29 336 349 318 315 321 321 343 333 323 314 319 304 313 314 326 304 312 309 321 316 318 316 323 319 316
158 165 164 158 155 150 172 161 197 281 216 61 141 121 147 174 201 301 321 305 292 297 295 298 319 324 315 309 308 300 306 304 302 307 313 304 302 307 314 319 315 311 317
157 163 158 149 149 143 135 153 169 132 115 130 138 162 230 227 283 310 301 281 270 270 278 288 301 323 310 302 303 309 308 298 294 304 308 304 301 301 311 313 314 295 316
133 136 143 146 136 131 127 129 126 130 128 129 67 321 323 318 314 305 300 283 278 280 270 274 293 298 289 298 292 300 288 302 304 312 308 308 304 305 309 301 296 306 303